Location: Marsån
(66.4167°N, 22.2833°E)
Time: 11:03:36
(UTC+00:00)

Cosmos 2333 - Pass Details

Date: 24 February 2024
Orbit: 832 x 863 km, 70.9° (Epoch: 15 April)

Event Time Altitude Azimuth Distance (km) Brightness Sun altitude
Rises 16:20:31 0° 295° (WNW) 3,408 8.4 -6.3°
Reaches altitude 10° 16:23:00 10° 299° (WNW) 2,468 7.5 -6.6°
Maximum altitude 16:28:38 66° 22° (NNE) 915 4.3 -7.1°
Drops below altitude 10° 16:34:14 10° 105° (ESE) 2,449 6.0 -7.7°
Enters shadow 16:34:51 - 106° (ESE) 2,682 6.2 -7.7°
